Wind_Speed
13 13 14 16 18 19 21 24 28 30 32 33 34 36 37 38 38 37 37 37 37 37 37 36 35 33 34 35 36 36 36 34
13 13 15 17 19 22 24 27 31 34 35 36 36 38 40 40 38 38 39 38 38 38 38 37 36 34 34 35 35 37 38 39
14 14 16 19 20 23 25 29 33 36 37 37 39 40 41 41 40 39 40 40 40 39 39 38 37 36 36 35 36 36 37 38
14 15 17 19 22 24 27 31 34 36 37 38 40 41 42 40 39 41 41 40 40 39 38 38 38 36 36 36 36 36 37 36
14 16 18 20 23 25 29 33 35 37 38 39 41 42 41 39 40 41 40 39 39 39 38 38 39 38 37 37 36 35 34 34
14 16 19 21 23 27 31 34 37 37 38 39 40 40 40 40 41 41 40 39 38 38 37 37 38 39 38 36 35 34 33 32
13 17 20 22 23 28 31 34 36 37 38 38 39 40 40 41 41 41 39 38 37 37 36 35 36 37 36 35 34 34 33 32
14 16 18 20 24 29 31 34 36 36 36 37 38 38 40 42 42 40 39 38 36 36 35 34 34 35 35 34 34 34 33 33
14 14 18 22 26 30 34 35 34 33 34 35 36 39 42 42 41 40 39 37 36 35 35 33 32 33 35 35 35 34 34 33
13 15 19 24 27 32 35 33 32 31 33 35 37 40 42 41 40 39 38 37 36 36 33 30 31 33 33 34 35 34 33 31
15 17 21 25 29 34 35 32 31 31 34 36 39 44 43 41 38 36 35 35 35 34 34 34 32 33 34 35 34 32 30 29
18 20 23 26 30 35 35 33 32 33 35 39 45 45 43 39 37 34 34 34 34 35 35 36 38 36 33 31 27 25 25 25
20 23 25 27 32 36 36 33 32 33 36 43 46 45 41 38 36 36 35 35 36 37 37 37 35 32 26 23 26 25 24 26
23 24 25 28 34 37 34 30 31 34 39 47 44 42 38 36 36 36 36 37 37 38 38 35 31 33 34 34 32 25 20 23
24 24 25 29 33 35 29 29 31 37 44 42 40 36 35 35 36 36 37 39 39 38 36 34 34 35 35 34 33 33 30 17
25 23 25 30 34 31 27 27 33 40 40 39 36 34 33 34 35 36 38 38 37 35 34 35 37 35 33 31 30 30 31 28
23 23 27 30 33 28 25 31 36 38 39 36 34 33 32 33 35 37 37 35 34 33 34 36 36 34 33 31 28 27 27 28
21 26 28 32 30 27 32 34 35 37 35 32 32 31 32 34 35 36 36 34 32 32 36 36 34 31 29 29 29 27 26 26
24 27 31 32 30 29 31 33 36 34 32 31 30 30 31 33 34 34 34 31 30 34 36 34 31 28 27 27 27 26 25 25
24 27 31 31 28 29 31 35 35 32 31 29 29 30 32 34 34 35 32 29 31 36 35 32 29 27 27 27 26 26 25 25
Wind_Direction
273 280 286 288 291 295 300 306 315 320 323 327 330 330 330 330 329 328 328 327 325 321 317 312 309 306 307 309 309 309 308 305
281 288 293 293 292 295 302 309 315 319 322 325 329 330 330 330 328 327 327 325 322 318 316 313 310 308 309 309 309 310 310 308
291 297 300 298 299 300 305 309 314 319 321 325 328 329 330 329 326 326 325 324 321 318 315 311 309 308 308 309 309 307 304 302
301 304 303 302 302 304 307 311 315 318 320 323 325 327 327 325 325 325 323 322 318 316 314 311 309 310 310 310 308 306 303 302
307 307 306 306 307 309 311 313 316 317 319 321 323 325 325 324 323 322 321 319 316 315 314 312 311 311 311 310 308 306 304 302
308 308 308 310 313 315 316 317 316 316 318 320 321 322 323 323 322 322 321 319 317 316 314 314 314 312 311 310 308 305 304 302
307 307 314 318 324 326 323 319 316 315 317 318 319 322 322 323 323 322 321 319 318 316 316 315 313 311 311 311 309 306 305 302
304 315 325 329 334 332 327 321 316 315 316 317 319 322 324 324 323 322 322 320 320 319 316 315 314 313 312 311 309 307 305 302
309 326 332 331 330 331 328 323 318 316 317 318 322 326 326 324 323 324 323 322 321 320 318 318 318 315 312 311 308 306 303 299
314 323 326 326 326 331 329 323 319 317 319 322 327 329 327 326 325 326 324 322 321 319 320 320 318 314 311 309 307 304 300 297
311 315 318 319 325 329 327 323 319 321 323 327 330 330 329 327 325 324 322 322 321 322 325 323 320 318 315 312 308 305 300 296
305 309 309 314 323 326 326 324 321 323 327 331 332 330 327 325 325 324 324 326 326 328 326 325 326 324 320 316 315 312 304 299
299 300 304 313 322 325 324 322 323 326 330 332 330 326 326 327 326 327 330 331 330 329 331 330 326 325 325 319 316 311 302 295
291 294 302 314 320 322 322 322 323 328 328 327 326 326 326 327 328 332 334 332 331 334 333 332 332 329 326 322 318 313 305 299
286 293 305 314 319 322 321 321 326 326 327 326 326 325 327 330 332 334 333 334 336 335 335 334 332 329 327 323 319 314 310 303
283 294 305 314 319 320 321 327 325 328 327 326 325 328 332 333 334 334 335 335 336 337 338 333 329 328 324 320 318 316 317 315
283 298 305 313 318 320 320 323 329 329 327 328 332 333 334 335 336 336 336 336 338 340 333 330 329 326 323 322 323 322 321 319
288 296 309 314 319 318 325 327 331 330 330 332 333 334 336 337 336 337 337 339 340 335 333 332 328 327 328 328 328 326 323 320
293 306 310 317 318 322 326 331 330 331 333 334 335 338 336 337 337 339 339 340 337 335 335 332 331 332 332 331 329 326 324 320
296 306 313 317 321 323 332 331 333 335 336 337 338 338 339 339 341 340 340 339 336 338 337 335 335 333 335 333 330 329 325 321
Height
3161 3161 3160 3159 3158 3157 3155 3152 3150 3147 3144 3141 3137 3134 3129 3125 3119 3115 3111 3106 3102 3098 3094 3090 3087 3084 3081 3077 3074 3070 3068 3067
3159 3159 3158 3157 3156 3155 3152 3150 3147 3144 3140 3137 3133 3129 3124 3119 3115 3111 3107 3102 3096 3092 3088 3084 3081 3078 3075 3071 3068 3065 3062 3059
3157 3156 3156 3155 3154 3152 3150 3147 3143 3139 3136 3132 3128 3124 3119 3114 3110 3106 3101 3096 3090 3086 3081 3077 3073 3069 3066 3063 3061 3057 3055 3052
3155 3154 3154 3153 3151 3150 3147 3144 3140 3136 3132 3128 3124 3119 3115 3110 3105 3100 3095 3089 3084 3079 3075 3070 3065 3062 3059 3055 3052 3050 3047 3044
3153 3153 3152 3151 3149 3147 3144 3140 3136 3132 3128 3124 3120 3115 3111 3105 3099 3094 3089 3083 3078 3073 3068 3063 3058 3055 3052 3048 3045 3042 3040 3037
3151 3151 3150 3149 3148 3145 3141 3136 3132 3129 3125 3120 3116 3111 3106 3100 3094 3089 3083 3077 3071 3066 3062 3057 3052 3047 3044 3040 3037 3034 3032 3030
3150 3149 3148 3146 3144 3140 3136 3132 3128 3125 3121 3116 3111 3106 3100 3094 3088 3082 3076 3071 3066 3061 3056 3052 3046 3041 3037 3034 3030 3027 3024 3023
3148 3147 3144 3141 3139 3136 3132 3128 3124 3120 3116 3111 3106 3100 3095 3088 3082 3076 3070 3065 3059 3055 3050 3046 3041 3035 3032 3028 3024 3021 3019 3016
3145 3143 3140 3138 3135 3133 3129 3124 3120 3116 3111 3107 3102 3096 3089 3082 3076 3071 3065 3059 3054 3049 3045 3040 3035 3029 3024 3021 3017 3014 3011 3008
3143 3141 3138 3135 3132 3130 3126 3120 3115 3111 3107 3102 3097 3091 3084 3077 3071 3066 3059 3053 3048 3043 3039 3035 3030 3024 3020 3015 3011 3007 3004 3001
3139 3137 3134 3132 3129 3126 3121 3116 3111 3107 3102 3097 3092 3086 3079 3073 3067 3061 3054 3047 3043 3038 3032 3027 3024 3018 3012 3007 3003 3000 2997 2994
3136 3133 3131 3129 3126 3122 3117 3111 3106 3102 3098 3092 3087 3080 3074 3067 3061 3055 3049 3043 3038 3032 3026 3020 3014 3010 3005 3000 2996 2993 2990 2988
3132 3130 3128 3126 3122 3119 3113 3107 3102 3098 3094 3088 3081 3073 3067 3061 3055 3049 3043 3038 3032 3025 3020 3014 3009 3005 3001 2997 2992 2989 2985 2982
3128 3127 3125 3122 3119 3114 3109 3104 3099 3094 3088 3082 3075 3069 3062 3056 3050 3043 3037 3033 3027 3019 3013 3008 3003 2998 2993 2989 2985 2984 2981 2976
3125 3124 3122 3119 3115 3111 3106 3100 3095 3089 3084 3077 3071 3064 3058 3051 3044 3038 3033 3027 3020 3014 3008 3003 2998 2994 2988 2984 2978 2974 2971 2973
3123 3122 3120 3115 3112 3107 3101 3096 3091 3086 3080 3073 3067 3060 3053 3047 3041 3035 3029 3023 3016 3010 3004 3000 2994 2988 2984 2980 2975 2969 2963 2961
3121 3120 3115 3112 3108 3102 3097 3093 3088 3081 3075 3068 3061 3055 3049 3043 3038 3032 3026 3019 3012 3006 3002 2996 2989 2984 2979 2974 2970 2964 2958 2954
3119 3115 3112 3109 3104 3099 3094 3089 3084 3078 3071 3064 3059 3053 3047 3040 3034 3028 3022 3014 3009 3005 2999 2991 2986 2980 2974 2969 2963 2959 2954 2949
3115 3114 3110 3105 3100 3096 3090 3086 3080 3074 3068 3062 3056 3051 3044 3038 3032 3025 3018 3011 3007 3001 2994 2987 2981 2976 2971 2965 2959 2954 2950 2945
3114 3110 3106 3101 3097 3091 3086 3082 3076 3070 3064 3058 3053 3046 3041 3035 3028 3021 3014 3009 3004 2998 2990 2983 2977 2972 2966 2960 2956 2951 2946 2942